Simultaneous Nadir Overpasses (SNOs) Predictions

Prediction of SNOs between GOES-17 and TERRA Satellite Orbit:

Table of predicted SNOs for the next 14.0 days since TLE Epoch: 5/18/2024
Index Date Time (GOES-17) GOES-17 Lat,Lon TERRA Lat,Lon Distance(km) Time Diff (sec)
1 05/18/2024 16:54:26 0.01,-104.71 0.42,-106.69 225.57 80
2 05/20/2024 16:39:47 0.01,-104.71 -0.44,-102.52 249.33 80
3 05/21/2024 04:59:53 -0.01,-104.71 -0.57,-107.41 306.56 80
4 05/23/2024 04:39:53 -0.01,-104.71 0.28,-103.22 168.20 80
5 05/23/2024 16:59:48 0.01,-104.71 0.74,-108.06 381.76 80
6 05/25/2024 16:45:08 -0.00,-104.71 -0.17,-103.89 92.70 80
7 05/26/2024 05:05:12 0.00,-104.70 -0.87,-108.77 463.08 80
8 05/28/2024 04:45:12 0.02,-104.69 0.04,-104.59 11.47 80
9 05/30/2024 04:27:50 0.03,-104.69 0.93,-100.41 486.63 80
10 05/30/2024 16:47:44 -0.02,-104.69 0.07,-105.25 63.21 80
